Time,TemperatureF,DewpointF,PressureIn,WindDirection,WindDirectionDegrees,WindSpeedMPH,WindSpeedGustMPH,Humidity,HourlyPrecipIn,Conditions,Clouds,dailyrainin,SoftwareType,DateUTC
2013-09-29 00:01:00,67.1,62.4,30.09,ENE,76,0.0,0.0,85,0.00,,,0.00,WeatherCatV1.02B3,2013-09-29 05:01:00,
2013-09-29 00:06:00,67.0,62.3,30.09,ENE,76,0.0,0.0,85,0.00,,,0.00,WeatherCatV1.02B3,2013-09-29 05:06:00,
2013-09-29 00:11:00,66.9,62.2,30.09,ENE,76,0.0,0.0,85,0.00,,,0.00,WeatherCatV1.02B3,2013-09-29 05:11:00,
2013-09-29 00:16:00,66.8,62.1,30.09,ENE,76,0.0,0.0,85,0.00,,,0.00,WeatherCatV1.02B3,2013-09-29 05:16:00,
2013-09-29 00:21:00,66.8,62.1,30.08,ENE,76,0.0,0.0,85,0.00,,,0.00,WeatherCatV1.02B3,2013-09-29 05:21:00,
2013-09-29 00:26:00,66.6,61.9,30.09,ENE,76,0.0,0.0,85,0.00,,,0.00,WeatherCatV1.02B3,2013-09-29 05:26:00,
2013-09-29 00:31:00,66.5,61.8,30.09,ENE,76,0.0,0.0,85,0.00,,,0.00,WeatherCatV1.02B3,2013-09-29 05:31:00,
2013-09-29 00:36:00,66.5,62.2,30.09,ENE,76,0.0,0.0,86,0.00,,,0.00,WeatherCatV1.02B3,2013-09-29 05:36:00,
2013-09-29 00:41:00,66.4,62.1,30.09,ENE,76,0.0,0.0,86,0.00,,,0.00,WeatherCatV1.02B3,2013-09-29 05:41:00,
2013-09-29 00:46:00,66.3,62.0,30.09,ENE,76,0.0,0.0,86,0.00,,,0.00,WeatherCatV1.02B3,2013-09-29 05:46:00,
2013-09-29 00:51:00,66.2,61.9,30.09,ENE,76,0.0,0.0,86,0.00,,,0.00,WeatherCatV1.02B3,2013-09-29 05:51:00,
2013-09-29 00:56:00,66.0,62.0,30.09,ENE,76,0.0,0.0,87,0.00,,,0.00,WeatherCatV1.02B3,2013-09-29 05:56:00,
2013-09-29 01:01:00,65.9,61.9,30.09,ENE,76,0.0,0.0,87,0.00,,,0.00,WeatherCatV1.02B3,2013-09-29 06:01:00,
2013-09-29 01:06:00,65.8,61.8,30.08,ENE,76,0.0,0.0,87,0.00,,,0.00,WeatherCatV1.02B3,2013-09-29 06:06:00,
2013-09-29 01:11:00,65.6,61.6,30.08,ENE,76,0.0,0.0,87,0.00,,,0.00,WeatherCatV1.02B3,2013-09-29 06:11:00,
2013-09-29 01:16:00,65.5,61.8,30.08,ENE,76,0.0,0.0,88,0.00,,,0.00,WeatherCatV1.02B3,2013-09-29 06:16:00,
2013-09-29 01:21:00,65.4,61.7,30.08,ENE,76,0.0,0.0,88,0.00,,,0.00,WeatherCatV1.02B3,2013-09-29 06:21:00,
2013-09-29 01:26:00,65.2,61.5,30.08,ENE,76,0.0,0.0,88,0.00,,,0.00,WeatherCatV1.02B3,2013-09-29 06:26:00,
2013-09-29 01:31:00,65.2,61.5,30.08,ENE,76,0.0,0.0,88,0.00,,,0.00,WeatherCatV1.02B3,2013-09-29 06:31:00,
2013-09-29 01:36:00,65.1,61.8,30.08,ENE,76,0.0,0.0,89,0.00,,,0.00,WeatherCatV1.02B3,2013-09-29 06:36:00,
2013-09-29 01:41:00,64.9,61.6,30.08,ENE,76,0.0,0.0,89,0.00,,,0.00,WeatherCatV1.02B3,2013-09-29 06:41:00,
2013-09-29 01:46:00,64.8,61.5,30.08,ENE,76,0.0,0.0,89,0.00,,,0.00,WeatherCatV1.02B3,2013-09-29 06:46:00,
2013-09-29 01:51:00,64.8,61.5,30.08,ENE,76,0.0,0.0,89,0.00,,,0.00,WeatherCatV1.02B3,2013-09-29 06:51:00,
2013-09-29 01:56:00,64.7,61.7,30.07,ENE,76,0.0,0.0,90,0.00,,,0.00,WeatherCatV1.02B3,2013-09-29 06:56:00,
2013-09-29 02:01:00,64.6,61.6,30.07,ENE,76,0.0,0.0,90,0.00,,,0.00,WeatherCatV1.02B3,2013-09-29 07:01:00,
2013-09-29 02:06:00,64.5,61.5,30.07,ENE,76,0.0,0.0,90,0.00,,,0.00,WeatherCatV1.02B3,2013-09-29 07:06:00,
2013-09-29 02:11:00,64.5,61.5,30.06,ENE,76,0.0,0.0,90,0.00,,,0.00,WeatherCatV1.02B3,2013-09-29 07:11:00,
2013-09-29 02:16:00,64.6,61.6,30.06,ENE,76,0.0,0.0,90,0.00,,,0.00,WeatherCatV1.02B3,2013-09-29 07:16:00,
2013-09-29 02:21:00,64.7,61.7,30.06,ENE,76,0.0,0.0,90,0.00,,,0.00,WeatherCatV1.02B3,2013-09-29 07:21:00,
2013-09-29 02:26:00,64.9,61.9,30.06,ENE,76,0.0,0.0,90,0.00,,,0.00,WeatherCatV1.02B3,2013-09-29 07:26:00,
2013-09-29 02:31:00,65.0,62.0,30.06,ENE,76,0.0,1.0,90,0.00,,,0.00,WeatherCatV1.02B3,2013-09-29 07:31:00,
2013-09-29 02:36:00,65.2,61.9,30.05,ENE,76,0.0,0.0,89,0.00,,,0.00,WeatherCatV1.02B3,2013-09-29 07:36:00,
2013-09-29 02:41:00,65.4,62.1,30.05,ENE,76,0.0,0.0,89,0.00,,,0.00,WeatherCatV1.02B3,2013-09-29 07:41:00,
2013-09-29 02:46:00,65.6,61.9,30.05,ENE,76,0.0,1.0,88,0.00,,,0.00,WeatherCatV1.02B3,2013-09-29 07:46:00,
2013-09-29 02:51:00,65.7,61.7,30.04,ENE,76,0.0,1.0,87,0.00,,,0.00,WeatherCatV1.02B3,2013-09-29 07:51:00,
2013-09-29 02:56:00,65.8,61.8,30.04,ENE,76,0.0,0.0,87,0.00,,,0.00,WeatherCatV1.02B3,2013-09-29 07:56:00,
2013-09-29 03:01:00,65.9,61.6,30.04,ESE,109,0.0,4.0,86,0.00,,,0.00,WeatherCatV1.02B3,2013-09-29 08:01:00,
2013-09-29 03:06:00,66.1,61.8,30.04,ESE,109,0.0,1.0,86,0.00,,,0.00,WeatherCatV1.02B3,2013-09-29 08:06:00,
2013-09-29 03:11:00,66.3,61.6,30.04,ESE,109,0.0,0.0,85,0.00,,,0.00,WeatherCatV1.02B3,2013-09-29 08:11:00,
2013-09-29 03:16:00,66.5,61.8,30.04,ESE,109,0.0,0.0,85,0.00,,,0.00,WeatherCatV1.02B3,2013-09-29 08:16:00,
2013-09-29 03:21:00,66.6,61.6,30.04,ESE,109,0.0,0.0,84,0.00,,,0.00,WeatherCatV1.02B3,2013-09-29 08:21:00,
2013-09-29 03:26:00,66.7,61.7,30.03,ESE,109,0.0,1.0,84,0.00,,,0.00,WeatherCatV1.02B3,2013-09-29 08:26:00,
2013-09-29 03:31:00,66.8,61.8,30.04,ESE,109,0.0,0.0,84,0.00,,,0.00,WeatherCatV1.02B3,2013-09-29 08:31:00,
2013-09-29 03:36:00,66.9,61.6,30.04,ESE,109,0.0,1.0,83,0.00,,,0.00,WeatherCatV1.02B3,2013-09-29 08:36:00,
2013-09-29 03:41:00,67.0,61.7,30.03,ESE,109,0.0,0.0,83,0.00,,,0.00,WeatherCatV1.02B3,2013-09-29 08:41:00,
2013-09-29 03:46:00,67.0,61.7,30.03,ESE,109,0.0,0.0,83,0.00,,,0.00,WeatherCatV1.02B3,2013-09-29 08:46:00,
2013-09-29 03:51:00,67.0,61.7,30.03,ESE,109,0.0,0.0,83,0.00,,,0.00,WeatherCatV1.02B3,2013-09-29 08:51:00,
2013-09-29 03:56:00,67.0,61.7,30.03,ESE,109,0.0,0.0,83,0.00,,,0.00,WeatherCatV1.02B3,2013-09-29 08:56:00,
2013-09-29 04:01:00,67.0,61.7,30.03,ESE,109,0.0,1.0,83,0.00,,,0.00,WeatherCatV1.02B3,2013-09-29 09:01:00,
2013-09-29 04:06:00,67.1,61.8,30.03,ESE,119,0.0,1.0,83,0.00,,,0.00,WeatherCatV1.02B3,2013-09-29 09:06:00,
2013-09-29 04:11:00,67.1,61.8,30.03,ESE,119,0.0,0.0,83,0.00,,,0.00,WeatherCatV1.02B3,2013-09-29 09:11:00,
2013-09-29 04:16:00,67.1,61.8,30.03,ESE,121,0.0,0.0,83,0.00,,,0.00,WeatherCatV1.02B3,2013-09-29 09:16:00,
2013-09-29 04:21:00,67.1,61.8,30.03,ESE,121,0.0,2.0,83,0.00,,,0.00,WeatherCatV1.02B3,2013-09-29 09:21:00,
2013-09-29 04:26:00,67.1,61.8,30.03,ESE,121,0.0,0.0,83,0.00,,,0.00,WeatherCatV1.02B3,2013-09-29 09:26:00,
2013-09-29 04:31:00,67.1,61.8,30.03,ESE,121,0.0,1.0,83,0.00,,,0.00,WeatherCatV1.02B3,2013-09-29 09:31:00,
2013-09-29 04:36:00,67.1,61.8,30.03,ESE,121,0.0,1.0,83,0.00,,,0.00,WeatherCatV1.02B3,2013-09-29 09:36:00,
2013-09-29 04:41:00,67.1,61.8,30.04,ESE,121,0.0,1.0,83,0.00,,,0.00,WeatherCatV1.02B3,2013-09-29 09:41:00,
2013-09-29 04:46:00,67.1,61.8,30.04,ESE,121,0.0,0.0,83,0.00,,,0.00,WeatherCatV1.02B3,2013-09-29 09:46:00,
2013-09-29 04:51:00,67.1,62.1,30.04,ESE,121,0.0,0.0,84,0.00,,,0.00,WeatherCatV1.02B3,2013-09-29 09:51:00,
2013-09-29 04:56:00,67.1,62.1,30.04,ESE,121,0.0,0.0,84,0.00,,,0.00,WeatherCatV1.02B3,2013-09-29 09:56:00,
2013-09-29 05:01:00,67.1,62.1,30.04,ESE,121,0.0,0.0,84,0.00,,,0.00,WeatherCatV1.02B3,2013-09-29 10:01:00,
2013-09-29 05:06:00,67.2,62.2,30.05,ESE,121,0.0,0.0,84,0.00,,,0.00,WeatherCatV1.02B3,2013-09-29 10:06:00,
2013-09-29 05:11:00,67.3,62.3,30.05,ESE,121,0.0,0.0,84,0.00,,,0.00,WeatherCatV1.02B3,2013-09-29 10:11:00,
2013-09-29 05:16:00,67.3,62.3,30.05,ESE,121,0.0,0.0,84,0.00,,,0.00,WeatherCatV1.02B3,2013-09-29 10:16:00,
2013-09-29 05:21:00,67.4,62.4,30.05,ESE,121,0.0,0.0,84,0.00,,,0.00,WeatherCatV1.02B3,2013-09-29 10:21:00,
2013-09-29 05:26:00,67.4,62.4,30.05,ESE,121,0.0,0.0,84,0.00,,,0.00,WeatherCatV1.02B3,2013-09-29 10:26:00,
2013-09-29 05:31:00,67.4,62.4,30.06,ESE,121,0.0,0.0,84,0.00,,,0.00,WeatherCatV1.02B3,2013-09-29 10:31:00,
2013-09-29 05:36:00,67.4,62.4,30.06,ESE,121,0.0,0.0,84,0.00,,,0.00,WeatherCatV1.02B3,2013-09-29 10:36:00,
2013-09-29 05:41:00,67.4,62.4,30.06,ESE,121,0.0,0.0,84,0.00,,,0.00,WeatherCatV1.02B3,2013-09-29 10:41:00,
2013-09-29 05:46:00,67.4,62.4,30.06,ESE,121,0.0,1.0,84,0.00,,,0.00,WeatherCatV1.02B3,2013-09-29 10:46:00,
2013-09-29 05:51:00,67.4,62.4,30.06,ESE,121,0.0,2.0,84,0.00,,,0.00,WeatherCatV1.02B3,2013-09-29 10:51:00,
2013-09-29 05:56:00,67.4,62.4,30.06,ESE,121,0.0,0.0,84,0.00,,,0.00,WeatherCatV1.02B3,2013-09-29 10:56:00,
2013-09-29 06:01:00,67.4,62.4,30.06,ESE,121,0.0,0.0,84,0.00,,,0.00,WeatherCatV1.02B3,2013-09-29 11:01:00,
2013-09-29 06:06:00,67.4,62.7,30.06,ESE,121,0.0,0.0,85,0.00,,,0.00,WeatherCatV1.02B3,2013-09-29 11:06:00,
2013-09-29 06:11:00,67.4,62.7,30.06,ESE,121,0.0,0.0,85,0.00,,,0.00,WeatherCatV1.02B3,2013-09-29 11:11:00,
2013-09-29 06:16:00,67.3,62.6,30.06,ESE,121,0.0,0.0,85,0.00,,,0.00,WeatherCatV1.02B3,2013-09-29 11:16:00,
2013-09-29 06:21:00,67.3,62.6,30.06,ESE,121,0.0,0.0,85,0.00,,,0.00,WeatherCatV1.02B3,2013-09-29 11:21:00,
2013-09-29 06:26:00,67.3,62.6,30.06,ESE,121,0.0,1.0,85,0.00,,,0.00,WeatherCatV1.02B3,2013-09-29 11:26:00,
2013-09-29 06:31:00,67.2,62.9,30.07,ESE,121,0.0,1.0,86,0.00,,,0.00,WeatherCatV1.02B3,2013-09-29 11:31:00,
2013-09-29 06:36:00,67.2,62.9,30.07,ESE,121,0.0,0.0,86,0.00,,,0.00,WeatherCatV1.02B3,2013-09-29 11:36:00,
2013-09-29 06:41:00,67.2,62.9,30.07,ESE,121,0.0,0.0,86,0.00,,,0.00,WeatherCatV1.02B3,2013-09-29 11:41:00,
2013-09-29 06:46:00,67.3,63.0,30.07,ESE,121,0.0,1.0,86,0.00,,,0.00,WeatherCatV1.02B3,2013-09-29 11:46:00,
2013-09-29 06:51:00,67.3,63.0,30.07,ESE,121,0.0,0.0,86,0.00,,,0.00,WeatherCatV1.02B3,2013-09-29 11:51:00,
2013-09-29 06:56:00,67.3,63.0,30.06,ESE,121,0.0,0.0,86,0.00,,,0.00,WeatherCatV1.02B3,2013-09-29 11:56:00,
2013-09-29 07:01:00,67.3,63.0,30.06,ESE,121,0.0,1.0,86,0.00,,,0.00,WeatherCatV1.02B3,2013-09-29 12:01:00,
2013-09-29 07:06:00,67.4,63.1,30.07,ESE,121,0.0,0.0,86,0.00,,,0.00,WeatherCatV1.02B3,2013-09-29 12:06:00,
2013-09-29 07:11:00,67.4,63.1,30.07,ESE,121,0.0,0.0,86,0.00,,,0.00,WeatherCatV1.02B3,2013-09-29 12:11:00,
2013-09-29 07:16:00,67.5,63.2,30.07,ESE,121,0.0,1.0,86,0.00,,,0.00,WeatherCatV1.02B3,2013-09-29 12:16:00,
2013-09-29 07:21:00,67.4,63.1,30.07,ESE,121,0.0,0.0,86,0.00,,,0.00,WeatherCatV1.02B3,2013-09-29 12:21:00,
2013-09-29 07:26:00,67.5,62.8,30.07,ESE,121,0.0,0.0,85,0.00,,,0.00,WeatherCatV1.02B3,2013-09-29 12:26:00,
2013-09-29 07:31:00,67.5,62.8,30.07,ESE,121,0.0,0.0,85,0.00,,,0.00,WeatherCatV1.02B3,2013-09-29 12:31:00,
2013-09-29 07:36:00,67.6,62.9,30.07,ESE,121,0.0,0.0,85,0.00,,,0.00,WeatherCatV1.02B3,2013-09-29 12:36:00,
2013-09-29 07:41:00,67.6,62.9,30.07,ESE,121,0.0,0.0,85,0.00,,,0.00,WeatherCatV1.02B3,2013-09-29 12:41:00,
2013-09-29 07:46:00,67.7,63.0,30.07,ESE,121,0.0,0.0,85,0.00,,,0.00,WeatherCatV1.02B3,2013-09-29 12:46:00,
2013-09-29 07:51:00,67.7,63.4,30.07,ESE,121,0.0,0.0,86,0.00,,,0.00,WeatherCatV1.02B3,2013-09-29 12:51:00,
2013-09-29 07:56:00,67.7,63.4,30.07,ESE,121,0.0,0.0,86,0.00,,,0.00,WeatherCatV1.02B3,2013-09-29 12:56:00,
2013-09-29 08:01:00,67.8,63.5,30.07,ESE,121,0.0,1.0,86,0.00,,,0.00,WeatherCatV1.02B3,2013-09-29 13:01:00,
2013-09-29 08:06:00,67.8,63.5,30.07,ESE,121,0.0,0.0,86,0.00,,,0.00,WeatherCatV1.02B3,2013-09-29 13:06:00,
2013-09-29 08:11:00,67.9,63.5,30.07,ESE,121,0.0,0.0,86,0.00,,,0.00,WeatherCatV1.02B3,2013-09-29 13:11:00,
2013-09-29 08:16:00,67.9,63.5,30.07,ESE,121,0.0,1.0,86,0.00,,,0.00,WeatherCatV1.02B3,2013-09-29 13:16:00,
2013-09-29 08:21:00,67.9,63.5,30.08,ESE,121,0.0,0.0,86,0.00,,,0.00,WeatherCatV1.02B3,2013-09-29 13:21:00,
2013-09-29 08:26:00,68.0,63.6,30.08,ESE,121,0.0,0.0,86,0.00,,,0.00,WeatherCatV1.02B3,2013-09-29 13:26:00,
2013-09-29 08:31:00,68.0,63.6,30.08,ESE,121,0.0,1.0,86,0.00,,,0.00,WeatherCatV1.02B3,2013-09-29 13:31:00,
2013-09-29 08:36:00,68.1,63.7,30.08,ESE,121,0.0,1.0,86,0.00,,,0.00,WeatherCatV1.02B3,2013-09-29 13:36:00,
2013-09-29 08:41:00,68.2,63.8,30.08,ESE,121,0.0,0.0,86,0.00,,,0.00,WeatherCatV1.02B3,2013-09-29 13:41:00,
2013-09-29 08:46:00,68.3,63.9,30.08,ESE,121,0.0,0.0,86,0.00,,,0.00,WeatherCatV1.02B3,2013-09-29 13:46:00,
2013-09-29 08:51:00,68.3,63.6,30.08,ESE,121,0.0,2.0,85,0.00,,,0.00,WeatherCatV1.02B3,2013-09-29 13:51:00,
2013-09-29 08:56:00,68.4,64.0,30.08,ESE,121,0.0,0.0,86,0.00,,,0.00,WeatherCatV1.02B3,2013-09-29 13:56:00,
2013-09-29 09:01:00,68.4,64.0,30.08,ESE,121,0.0,1.0,86,0.00,,,0.00,WeatherCatV1.02B3,2013-09-29 14:01:00,
2013-09-29 09:06:00,68.4,64.0,30.08,ESE,121,0.0,0.0,86,0.00,,,0.00,WeatherCatV1.02B3,2013-09-29 14:06:00,
2013-09-29 09:11:00,68.5,64.1,30.08,ESE,121,0.0,2.0,86,0.00,,,0.00,WeatherCatV1.02B3,2013-09-29 14:11:00,
2013-09-29 09:16:00,68.5,64.1,30.08,ESE,121,0.0,1.0,86,0.00,,,0.00,WeatherCatV1.02B3,2013-09-29 14:16:00,
2013-09-29 09:21:00,68.5,64.1,30.08,ESE,121,0.0,0.0,86,0.00,,,0.00,WeatherCatV1.02B3,2013-09-29 14:21:00,
2013-09-29 09:26:00,68.6,64.2,30.08,ESE,121,0.0,0.0,86,0.00,,,0.00,WeatherCatV1.02B3,2013-09-29 14:26:00,
2013-09-29 09:31:00,68.8,64.4,30.08,ESE,121,0.0,1.0,86,0.00,,,0.00,WeatherCatV1.02B3,2013-09-29 14:31:00,
2013-09-29 09:36:00,68.9,64.2,30.08,ESE,121,0.0,2.0,85,0.00,,,0.00,WeatherCatV1.02B3,2013-09-29 14:36:00,
2013-09-29 09:41:00,69.1,64.7,30.08,ESE,121,0.0,0.0,86,0.00,,,0.00,WeatherCatV1.02B3,2013-09-29 14:41:00,
2013-09-29 09:46:00,69.3,64.9,30.08,ESE,121,0.0,2.0,86,0.00,,,0.00,WeatherCatV1.02B3,2013-09-29 14:46:00,
2013-09-29 09:51:00,69.4,65.0,30.08,ESE,121,0.0,0.0,86,0.00,,,0.00,WeatherCatV1.02B3,2013-09-29 14:51:00,
2013-09-29 09:56:00,69.5,64.8,30.08,ESE,121,0.0,0.0,85,0.00,,,0.00,WeatherCatV1.02B3,2013-09-29 14:56:00,
2013-09-29 10:01:00,69.7,65.0,30.08,ESE,121,0.0,4.0,85,0.00,,,0.00,WeatherCatV1.02B3,2013-09-29 15:01:00,
2013-09-29 10:06:00,69.9,65.2,30.08,ESE,121,0.0,1.0,85,0.00,,,0.00,WeatherCatV1.02B3,2013-09-29 15:06:00,
2013-09-29 10:11:00,69.9,65.2,30.08,ESE,121,0.0,1.0,85,0.00,,,0.00,WeatherCatV1.02B3,2013-09-29 15:11:00,
2013-09-29 10:16:00,70.1,65.4,30.08,ESE,121,0.0,1.0,85,0.00,,,0.00,WeatherCatV1.02B3,2013-09-29 15:16:00,
2013-09-29 10:21:00,70.1,65.4,30.08,ESE,121,0.0,2.0,85,0.00,,,0.00,WeatherCatV1.02B3,2013-09-29 15:21:00,
2013-09-29 10:26:00,70.2,65.1,30.08,ESE,121,0.0,4.0,84,0.00,,,0.00,WeatherCatV1.02B3,2013-09-29 15:26:00,
2013-09-29 10:31:00,70.2,65.1,30.08,ESE,121,0.0,1.0,84,0.00,,,0.00,WeatherCatV1.02B3,2013-09-29 15:31:00,
2013-09-29 10:36:00,70.4,65.7,30.08,ESE,121,0.0,2.0,85,0.00,,,0.00,WeatherCatV1.02B3,2013-09-29 15:36:00,
2013-09-29 10:41:00,70.7,65.6,30.08,SE,128,0.0,6.0,84,0.00,,,0.00,WeatherCatV1.02B3,2013-09-29 15:41:00,
2013-09-29 10:46:00,71.1,66.0,30.08,SE,128,0.0,2.0,84,0.00,,,0.00,WeatherCatV1.02B3,2013-09-29 15:46:00,
2013-09-29 10:51:00,71.3,65.9,30.08,SE,128,0.0,0.0,83,0.00,,,0.00,WeatherCatV1.02B3,2013-09-29 15:51:00,
2013-09-29 10:56:00,71.6,65.8,30.08,SE,128,0.0,5.0,82,0.00,,,0.00,WeatherCatV1.02B3,2013-09-29 15:56:00,
2013-09-29 11:01:00,71.8,66.0,30.08,SE,128,0.0,4.0,82,0.00,,,0.00,WeatherCatV1.02B3,2013-09-29 16:01:00,
2013-09-29 11:06:00,72.0,65.8,30.08,SE,132,0.0,6.0,81,0.00,,,0.00,WeatherCatV1.02B3,2013-09-29 16:06:00,
2013-09-29 11:11:00,72.0,65.5,30.07,SSE,154,0.0,1.0,80,0.00,,,0.00,WeatherCatV1.02B3,2013-09-29 16:11:00,
2013-09-29 11:16:00,72.0,65.8,30.07,SSE,154,0.0,0.0,81,0.00,,,0.00,WeatherCatV1.02B3,2013-09-29 16:16:00,
2013-09-29 11:21:00,72.2,66.0,30.07,SE,130,0.0,5.0,81,0.00,,,0.00,WeatherCatV1.02B3,2013-09-29 16:21:00,
2013-09-29 11:26:00,72.4,65.9,30.08,SE,139,0.0,1.0,80,0.00,,,0.00,WeatherCatV1.02B3,2013-09-29 16:26:00,
2013-09-29 11:31:00,72.4,65.5,30.08,SSE,153,1.0,1.0,79,0.00,,,0.00,WeatherCatV1.02B3,2013-09-29 16:31:00,
2013-09-29 11:36:00,72.4,65.9,30.08,SSE,151,0.0,1.0,80,0.00,,,0.00,WeatherCatV1.02B3,2013-09-29 16:36:00,
2013-09-29 11:41:00,72.5,66.0,30.08,SSE,158,0.0,1.0,80,0.00,,,0.00,WeatherCatV1.02B3,2013-09-29 16:41:00,
2013-09-29 11:46:00,72.6,65.7,30.08,SSE,158,0.0,1.0,79,0.00,,,0.00,WeatherCatV1.02B3,2013-09-29 16:46:00,
2013-09-29 11:51:00,72.8,66.3,30.07,SSE,158,0.0,1.0,80,0.00,,,0.00,WeatherCatV1.02B3,2013-09-29 16:51:00,
2013-09-29 11:56:00,72.9,66.4,30.07,SSE,158,0.0,1.0,80,0.00,,,0.00,WeatherCatV1.02B3,2013-09-29 16:56:00,
2013-09-29 12:01:00,73.0,66.8,30.07,SSE,158,0.0,0.0,81,0.00,,,0.00,WeatherCatV1.02B3,2013-09-29 17:01:00,
2013-09-29 12:06:00,73.2,67.0,30.07,SSE,158,0.0,0.0,81,0.00,,,0.00,WeatherCatV1.02B3,2013-09-29 17:06:00,
2013-09-29 12:11:00,73.4,66.8,30.07,SSE,158,0.0,1.0,80,0.00,,,0.00,WeatherCatV1.02B3,2013-09-29 17:11:00,
2013-09-29 12:16:00,73.7,67.1,30.07,SSE,159,1.0,1.0,80,0.00,,,0.00,WeatherCatV1.02B3,2013-09-29 17:16:00,
2013-09-29 12:21:00,73.7,67.1,30.06,SE,139,0.0,0.0,80,0.00,,,0.00,WeatherCatV1.02B3,2013-09-29 17:21:00,
2013-09-29 12:26:00,73.7,66.8,30.06,SE,139,0.0,2.0,79,0.00,,,0.00,WeatherCatV1.02B3,2013-09-29 17:26:00,
2013-09-29 12:31:00,73.6,67.0,30.06,SE,139,0.0,0.0,80,0.00,,,0.00,WeatherCatV1.02B3,2013-09-29 17:31:00,
2013-09-29 12:36:00,73.7,67.1,30.06,SE,139,0.0,1.0,80,0.00,,,0.00,WeatherCatV1.02B3,2013-09-29 17:36:00,
2013-09-29 12:41:00,73.8,67.6,30.06,SE,139,2.0,5.0,81,0.00,,,0.00,WeatherCatV1.02B3,2013-09-29 17:41:00,
2013-09-29 12:46:00,73.8,67.2,30.06,SE,138,0.0,5.0,80,0.00,,,0.00,WeatherCatV1.02B3,2013-09-29 17:46:00,
2013-09-29 12:51:00,73.7,67.1,30.06,SE,139,1.0,1.0,80,0.00,,,0.00,WeatherCatV1.02B3,2013-09-29 17:51:00,
2013-09-29 12:56:00,73.7,67.5,30.05,SE,139,1.0,1.0,81,0.00,,,0.00,WeatherCatV1.02B3,2013-09-29 17:56:00,
2013-09-29 13:01:00,73.7,67.5,30.05,SE,137,0.0,4.0,81,0.00,,,0.00,WeatherCatV1.02B3,2013-09-29 18:01:00,
2013-09-29 13:06:00,73.6,67.4,30.05,SE,137,0.0,4.0,81,0.00,,,0.00,WeatherCatV1.02B3,2013-09-29 18:06:00,
2013-09-29 13:11:00,73.6,67.4,30.04,SE,137,0.0,0.0,81,0.00,,,0.00,WeatherCatV1.02B3,2013-09-29 18:11:00,
2013-09-29 13:16:00,73.5,67.3,30.04,SE,137,0.0,0.0,81,0.00,,,0.00,WeatherCatV1.02B3,2013-09-29 18:16:00,
2013-09-29 13:21:00,73.4,67.2,30.04,SE,137,0.0,0.0,81,0.00,,,0.00,WeatherCatV1.02B3,2013-09-29 18:21:00,
2013-09-29 13:26:00,73.4,67.2,30.04,SE,137,0.0,0.0,81,0.00,,,0.00,WeatherCatV1.02B3,2013-09-29 18:26:00,
2013-09-29 13:31:00,73.3,67.1,30.04,SE,137,0.0,0.0,81,0.00,,,0.00,WeatherCatV1.02B3,2013-09-29 18:31:00,
2013-09-29 13:36:00,73.3,67.1,30.03,SE,137,0.0,2.0,81,0.00,,,0.00,WeatherCatV1.02B3,2013-09-29 18:36:00,
2013-09-29 13:41:00,73.1,66.9,30.03,SE,138,0.0,0.0,81,0.00,,,0.00,WeatherCatV1.02B3,2013-09-29 18:41:00,
2013-09-29 13:46:00,73.0,66.8,30.03,SE,138,0.0,1.0,81,0.00,,,0.00,WeatherCatV1.02B3,2013-09-29 18:46:00,
2013-09-29 13:51:00,73.0,67.2,30.03,SE,138,0.0,0.0,82,0.00,,,0.00,WeatherCatV1.02B3,2013-09-29 18:51:00,
2013-09-29 13:56:00,73.0,67.2,30.02,SE,138,0.0,0.0,82,0.00,,,0.00,WeatherCatV1.02B3,2013-09-29 18:56:00,
2013-09-29 14:01:00,73.0,67.5,30.02,SE,138,0.0,0.0,83,0.00,,,0.00,WeatherCatV1.02B3,2013-09-29 19:01:00,
2013-09-29 14:06:00,73.0,67.5,30.02,SE,138,0.0,0.0,83,0.00,,,0.00,WeatherCatV1.02B3,2013-09-29 19:06:00,
2013-09-29 14:11:00,72.9,67.4,30.02,SE,138,0.0,0.0,83,0.00,,,0.00,WeatherCatV1.02B3,2013-09-29 19:11:00,
2013-09-29 14:16:00,72.8,67.7,30.02,SE,138,0.0,0.0,84,0.00,,,0.00,WeatherCatV1.02B3,2013-09-29 19:16:00,
2013-09-29 14:21:00,72.7,67.6,30.01,SE,138,0.0,0.0,84,0.00,,,0.00,WeatherCatV1.02B3,2013-09-29 19:21:00,
2013-09-29 14:26:00,72.6,67.8,30.02,SE,138,0.0,0.0,85,0.00,,,0.00,WeatherCatV1.02B3,2013-09-29 19:26:00,
2013-09-29 14:31:00,72.5,67.7,30.02,SE,138,0.0,0.0,85,0.00,,,0.00,WeatherCatV1.02B3,2013-09-29 19:31:00,
2013-09-29 14:36:00,72.4,68.0,30.02,SE,138,0.0,0.0,86,0.00,,,0.00,WeatherCatV1.02B3,2013-09-29 19:36:00,
2013-09-29 14:41:00,72.2,67.8,30.02,SE,138,0.0,0.0,86,0.00,,,0.00,WeatherCatV1.02B3,2013-09-29 19:41:00,
2013-09-29 14:46:00,71.9,67.8,30.01,SE,138,1.0,1.0,87,0.00,,,0.00,WeatherCatV1.02B3,2013-09-29 19:46:00,
2013-09-29 14:48:00,71.9,67.8,30.01,SE,138,0.0,2.0,87,0.00,,,0.00,WeatherCatV1.02B3,2013-09-29 19:48:00,
2013-09-29 14:53:00,71.7,67.6,30.01,SE,138,0.0,1.0,87,0.00,,,0.00,WeatherCatV1.02B3,2013-09-29 19:53:00,
2013-09-29 14:58:00,71.5,67.8,30.01,SE,138,1.0,1.0,88,0.00,,,0.00,WeatherCatV1.02B3,2013-09-29 19:58:00,
2013-09-29 15:03:00,71.3,67.6,30.01,SE,138,0.0,1.0,88,0.00,,,0.00,WeatherCatV1.02B3,2013-09-29 20:03:00,
2013-09-29 15:08:00,71.2,67.8,30.01,SE,138,0.0,0.0,89,0.00,,,0.00,WeatherCatV1.02B3,2013-09-29 20:08:00,
2013-09-29 15:13:00,71.1,67.7,30.01,SE,138,0.0,0.0,89,0.00,,,0.00,WeatherCatV1.02B3,2013-09-29 20:13:00,
2013-09-29 15:18:00,71.0,67.6,30.01,SE,138,0.0,1.0,89,0.00,,,0.00,WeatherCatV1.02B3,2013-09-29 20:18:00,
2013-09-29 15:23:00,70.8,67.4,30.01,SE,138,0.0,0.0,89,0.00,,,0.00,WeatherCatV1.02B3,2013-09-29 20:23:00,
2013-09-29 15:28:00,70.9,67.8,30.01,SE,138,0.0,0.0,90,0.00,,,0.00,WeatherCatV1.02B3,2013-09-29 20:28:00,
2013-09-29 15:33:00,71.0,67.9,30.01,SE,138,0.0,0.0,90,0.00,,,0.00,WeatherCatV1.02B3,2013-09-29 20:33:00,
2013-09-29 15:38:00,71.2,68.1,30.00,SE,138,0.0,0.0,90,0.00,,,0.00,WeatherCatV1.02B3,2013-09-29 20:38:00,
2013-09-29 15:43:00,71.2,68.4,30.00,SE,138,0.0,0.0,91,0.00,,,0.00,WeatherCatV1.02B3,2013-09-29 20:43:00,
2013-09-29 15:48:00,71.2,68.1,30.00,SE,137,0.0,0.0,90,0.00,,,0.00,WeatherCatV1.02B3,2013-09-29 20:48:00,
2013-09-29 15:53:00,71.2,68.1,30.00,SE,138,0.0,1.0,90,0.00,,,0.00,WeatherCatV1.02B3,2013-09-29 20:53:00,
2013-09-29 15:58:00,71.2,68.1,30.00,SE,138,0.0,0.0,90,0.00,,,0.00,WeatherCatV1.02B3,2013-09-29 20:58:00,
2013-09-29 16:03:00,71.1,68.0,30.00,SE,138,0.0,2.0,90,0.00,,,0.00,WeatherCatV1.02B3,2013-09-29 21:03:00,
2013-09-29 16:08:00,71.1,67.7,30.00,SE,138,0.0,0.0,89,0.00,,,0.00,WeatherCatV1.02B3,2013-09-29 21:08:00,
2013-09-29 16:13:00,71.1,67.7,30.00,SE,138,0.0,0.0,89,0.00,,,0.00,WeatherCatV1.02B3,2013-09-29 21:13:00,
2013-09-29 16:18:00,71.1,67.7,30.00,SE,138,0.0,0.0,89,0.00,,,0.00,WeatherCatV1.02B3,2013-09-29 21:18:00,
2013-09-29 16:23:00,71.1,67.7,30.00,SE,138,0.0,0.0,89,0.00,,,0.00,WeatherCatV1.02B3,2013-09-29 21:23:00,
2013-09-29 16:28:00,71.2,67.8,30.00,SE,138,0.0,0.0,89,0.00,,,0.00,WeatherCatV1.02B3,2013-09-29 21:28:00,
2013-09-29 16:33:00,71.2,67.8,30.00,SE,138,0.0,0.0,89,0.00,,,0.00,WeatherCatV1.02B3,2013-09-29 21:33:00,
2013-09-29 16:38:00,71.2,68.1,30.00,SE,138,0.0,0.0,90,0.00,,,0.00,WeatherCatV1.02B3,2013-09-29 21:38:00,
2013-09-29 16:43:00,71.1,67.7,30.00,SSE,159,0.0,1.0,89,0.00,,,0.00,WeatherCatV1.02B3,2013-09-29 21:43:00,
2013-09-29 16:48:00,70.8,67.1,30.00,SSE,164,0.0,2.0,88,0.00,,,0.00,WeatherCatV1.02B3,2013-09-29 21:48:00,
2013-09-29 16:53:00,70.7,67.0,30.00,SSE,164,0.0,1.0,88,0.00,,,0.00,WeatherCatV1.02B3,2013-09-29 21:53:00,
2013-09-29 16:58:00,70.6,67.2,30.00,SSE,164,0.0,0.0,89,0.00,,,0.00,WeatherCatV1.02B3,2013-09-29 21:58:00,
2013-09-29 17:03:00,70.6,67.2,30.00,SSE,164,0.0,0.0,89,0.00,,,0.00,WeatherCatV1.02B3,2013-09-29 22:03:00,
2013-09-29 17:08:00,70.5,67.4,29.99,SSE,158,1.0,1.0,90,0.00,,,0.00,WeatherCatV1.02B3,2013-09-29 22:08:00,
2013-09-29 17:13:00,70.5,67.4,30.00,SSE,158,0.0,0.0,90,0.00,,,0.00,WeatherCatV1.02B3,2013-09-29 22:13:00,
2013-09-29 17:18:00,70.5,67.4,29.99,SSE,158,0.0,0.0,90,0.00,,,0.00,WeatherCatV1.02B3,2013-09-29 22:18:00,
2013-09-29 17:23:00,70.6,67.5,29.99,SSE,158,0.0,0.0,90,0.00,,,0.00,WeatherCatV1.02B3,2013-09-29 22:23:00,
2013-09-29 17:28:00,70.7,67.9,29.99,SSE,158,0.0,0.0,91,0.00,,,0.00,WeatherCatV1.02B3,2013-09-29 22:28:00,
2013-09-29 17:33:00,70.8,68.0,29.99,SSE,158,0.0,0.0,91,0.00,,,0.00,WeatherCatV1.02B3,2013-09-29 22:33:00,
2013-09-29 17:38:00,70.8,68.0,29.99,SSE,158,0.0,0.0,91,0.00,,,0.00,WeatherCatV1.02B3,2013-09-29 22:38:00,
2013-09-29 17:43:00,70.9,68.1,29.99,SSE,158,0.0,0.0,91,0.00,,,0.00,WeatherCatV1.02B3,2013-09-29 22:43:00,
2013-09-29 17:48:00,70.9,68.1,29.99,SSE,158,0.0,0.0,91,0.00,,,0.00,WeatherCatV1.02B3,2013-09-29 22:48:00,
2013-09-29 17:53:00,70.9,68.1,30.00,SSE,158,0.0,0.0,91,0.00,,,0.00,WeatherCatV1.02B3,2013-09-29 22:53:00,
2013-09-29 17:58:00,70.9,68.1,30.00,SSE,158,0.0,0.0,91,0.00,,,0.00,WeatherCatV1.02B3,2013-09-29 22:58:00,
2013-09-29 18:03:00,71.0,68.2,30.00,SSE,158,0.0,0.0,91,0.00,,,0.00,WeatherCatV1.02B3,2013-09-29 23:03:00,
2013-09-29 18:08:00,71.0,68.2,30.00,SSE,158,0.0,0.0,91,0.00,,,0.00,WeatherCatV1.02B3,2013-09-29 23:08:00,
2013-09-29 18:13:00,71.0,68.6,30.00,SSE,158,0.0,0.0,92,0.00,,,0.00,WeatherCatV1.02B3,2013-09-29 23:13:00,
2013-09-29 18:18:00,71.1,68.7,30.00,SSE,158,0.0,0.0,92,0.00,,,0.00,WeatherCatV1.02B3,2013-09-29 23:18:00,
2013-09-29 18:23:00,71.1,68.7,30.00,SSE,158,0.0,0.0,92,0.00,,,0.00,WeatherCatV1.02B3,2013-09-29 23:23:00,
2013-09-29 18:28:00,71.2,68.8,30.00,SSE,158,0.0,0.0,92,0.00,,,0.00,WeatherCatV1.02B3,2013-09-29 23:28:00,
2013-09-29 18:33:00,71.2,68.8,30.00,SSE,158,0.0,0.0,92,0.00,,,0.00,WeatherCatV1.02B3,2013-09-29 23:33:00,
2013-09-29 18:38:00,71.2,68.8,30.00,SSE,158,0.0,0.0,92,0.00,,,0.00,WeatherCatV1.02B3,2013-09-29 23:38:00,
2013-09-29 18:43:00,71.2,68.8,30.00,SSE,158,0.0,0.0,92,0.00,,,0.00,WeatherCatV1.02B3,2013-09-29 23:43:00,
2013-09-29 18:48:00,71.2,68.8,30.00,SSE,158,0.0,0.0,92,0.00,,,0.00,WeatherCatV1.02B3,2013-09-29 23:48:00,
2013-09-29 18:53:00,71.1,68.7,30.00,SSE,158,0.0,0.0,92,0.00,,,0.00,WeatherCatV1.02B3,2013-09-29 23:53:00,
2013-09-29 18:58:00,71.1,68.7,30.00,SSE,158,0.0,0.0,92,0.00,,,0.00,WeatherCatV1.02B3,2013-09-29 23:58:00,
2013-09-29 19:03:00,71.0,68.6,30.00,SSE,158,0.0,0.0,92,0.00,,,0.00,WeatherCatV1.02B3,2013-09-30 00:03:00,
2013-09-29 19:08:00,71.0,68.9,30.00,SSE,158,0.0,0.0,93,0.00,,,0.00,WeatherCatV1.02B3,2013-09-30 00:08:00,
2013-09-29 19:13:00,71.0,68.9,30.00,SSE,158,0.0,0.0,93,0.00,,,0.00,WeatherCatV1.02B3,2013-09-30 00:13:00,
2013-09-29 19:18:00,71.0,68.9,30.00,SSE,158,0.0,0.0,93,0.00,,,0.00,WeatherCatV1.02B3,2013-09-30 00:18:00,
2013-09-29 19:23:00,70.9,68.8,30.00,SSE,158,0.0,0.0,93,0.00,,,0.00,WeatherCatV1.02B3,2013-09-30 00:23:00,
2013-09-29 19:28:00,70.9,68.8,30.00,SSE,158,0.0,0.0,93,0.00,,,0.00,WeatherCatV1.02B3,2013-09-30 00:28:00,
2013-09-29 19:33:00,70.9,68.8,30.00,SSE,158,0.0,0.0,93,0.00,,,0.00,WeatherCatV1.02B3,2013-09-30 00:33:00,
2013-09-29 19:38:00,70.9,68.8,30.01,SSE,158,0.0,0.0,93,0.00,,,0.00,WeatherCatV1.02B3,2013-09-30 00:38:00,
2013-09-29 19:43:00,70.9,68.8,30.01,SSE,158,0.0,0.0,93,0.00,,,0.00,WeatherCatV1.02B3,2013-09-30 00:43:00,
2013-09-29 19:48:00,70.9,68.8,30.01,SSE,158,0.0,0.0,93,0.00,,,0.00,WeatherCatV1.02B3,2013-09-30 00:48:00,
2013-09-29 19:53:00,70.9,68.8,30.01,SSE,158,0.0,0.0,93,0.00,,,0.00,WeatherCatV1.02B3,2013-09-30 00:53:00,
2013-09-29 19:58:00,70.8,68.7,30.01,SSE,158,0.0,0.0,93,0.00,,,0.00,WeatherCatV1.02B3,2013-09-30 00:58:00,
2013-09-29 20:03:00,70.8,69.0,30.01,SSE,158,0.0,0.0,94,0.00,,,0.00,WeatherCatV1.02B3,2013-09-30 01:03:00,
2013-09-29 20:08:00,70.8,69.0,30.01,SSE,158,0.0,0.0,94,0.00,,,0.00,WeatherCatV1.02B3,2013-09-30 01:08:00,
2013-09-29 20:13:00,70.8,69.0,30.01,SSE,158,0.0,0.0,94,0.00,,,0.00,WeatherCatV1.02B3,2013-09-30 01:13:00,
2013-09-29 20:18:00,70.8,69.0,30.01,SSE,158,0.0,0.0,94,0.00,,,0.00,WeatherCatV1.02B3,2013-09-30 01:18:00,
2013-09-29 20:23:00,70.8,69.0,30.01,SSE,158,0.0,0.0,94,0.00,,,0.00,WeatherCatV1.02B3,2013-09-30 01:23:00,
2013-09-29 20:28:00,70.8,69.0,30.01,SSE,158,0.0,0.0,94,0.00,,,0.00,WeatherCatV1.02B3,2013-09-30 01:28:00,
2013-09-29 20:33:00,70.8,69.0,30.01,SSE,158,0.0,0.0,94,0.00,,,0.00,WeatherCatV1.02B3,2013-09-30 01:33:00,
2013-09-29 20:38:00,70.8,69.0,30.02,SSE,158,0.0,0.0,94,0.00,,,0.00,WeatherCatV1.02B3,2013-09-30 01:38:00,
2013-09-29 20:43:00,70.8,69.0,30.02,SSE,158,0.0,0.0,94,0.00,,,0.00,WeatherCatV1.02B3,2013-09-30 01:43:00,
2013-09-29 20:48:00,70.8,69.0,30.02,SSE,158,0.0,0.0,94,0.00,,,0.00,WeatherCatV1.02B3,2013-09-30 01:48:00,
2013-09-29 20:53:00,70.8,69.0,30.01,SSE,158,0.0,0.0,94,0.00,,,0.00,WeatherCatV1.02B3,2013-09-30 01:53:00,
2013-09-29 20:58:00,70.8,69.0,30.01,SSE,158,0.0,0.0,94,0.00,,,0.00,WeatherCatV1.02B3,2013-09-30 01:58:00,
2013-09-29 21:03:00,70.8,69.0,30.01,SSE,158,0.0,0.0,94,0.00,,,0.00,WeatherCatV1.02B3,2013-09-30 02:03:00,
2013-09-29 21:08:00,70.8,69.0,30.01,SSE,158,0.0,0.0,94,0.00,,,0.00,WeatherCatV1.02B3,2013-09-30 02:08:00,
2013-09-29 21:13:00,70.7,68.9,30.01,SSE,158,0.0,0.0,94,0.00,,,0.00,WeatherCatV1.02B3,2013-09-30 02:13:00,
2013-09-29 21:18:00,70.7,68.9,30.01,SSE,158,0.0,0.0,94,0.00,,,0.00,WeatherCatV1.02B3,2013-09-30 02:18:00,
2013-09-29 21:23:00,70.7,68.9,30.01,SSE,158,0.0,0.0,94,0.00,,,0.00,WeatherCatV1.02B3,2013-09-30 02:23:00,
2013-09-29 21:28:00,70.7,68.9,30.01,SSE,158,0.0,0.0,94,0.00,,,0.00,WeatherCatV1.02B3,2013-09-30 02:28:00,
2013-09-29 21:33:00,70.6,68.8,30.00,SSE,158,0.0,0.0,94,0.00,,,0.00,WeatherCatV1.02B3,2013-09-30 02:33:00,
2013-09-29 21:38:00,70.6,68.8,30.00,SSE,158,0.0,0.0,94,0.00,,,0.00,WeatherCatV1.02B3,2013-09-30 02:38:00,
2013-09-29 21:43:00,70.6,68.8,30.00,SSE,158,0.0,0.0,94,0.00,,,0.00,WeatherCatV1.02B3,2013-09-30 02:43:00,
2013-09-29 21:48:00,70.6,68.8,30.00,SSE,158,0.0,1.0,94,0.00,,,0.00,WeatherCatV1.02B3,2013-09-30 02:48:00,
2013-09-29 21:53:00,70.5,68.7,30.00,SSE,158,0.0,0.0,94,0.00,,,0.00,WeatherCatV1.02B3,2013-09-30 02:53:00,
2013-09-29 21:58:00,70.5,68.7,30.00,SSE,158,0.0,0.0,94,0.00,,,0.00,WeatherCatV1.02B3,2013-09-30 02:58:00,
2013-09-29 22:03:00,70.5,68.7,30.00,SSE,158,0.0,0.0,94,0.00,,,0.00,WeatherCatV1.02B3,2013-09-30 03:03:00,
2013-09-29 22:08:00,70.5,68.7,30.00,SSE,158,0.0,0.0,94,0.00,,,0.00,WeatherCatV1.02B3,2013-09-30 03:08:00,
2013-09-29 22:13:00,70.4,68.6,30.00,SSE,158,0.0,0.0,94,0.00,,,0.00,WeatherCatV1.02B3,2013-09-30 03:13:00,
2013-09-29 22:18:00,70.4,68.6,30.00,SSE,158,0.0,0.0,94,0.00,,,0.00,WeatherCatV1.02B3,2013-09-30 03:18:00,
2013-09-29 22:23:00,70.4,68.6,30.00,SSE,158,0.0,0.0,94,0.00,,,0.00,WeatherCatV1.02B3,2013-09-30 03:23:00,
2013-09-29 22:28:00,70.4,68.6,30.00,SSE,158,0.0,0.0,94,0.00,,,0.00,WeatherCatV1.02B3,2013-09-30 03:28:00,
2013-09-29 22:33:00,70.4,68.6,30.00,SSE,158,0.0,0.0,94,0.00,,,0.00,WeatherCatV1.02B3,2013-09-30 03:33:00,
2013-09-29 22:38:00,70.3,68.5,29.99,SSE,158,0.0,0.0,94,0.00,,,0.00,WeatherCatV1.02B3,2013-09-30 03:38:00,
2013-09-29 22:43:00,70.3,68.5,29.99,SSE,158,0.0,0.0,94,0.00,,,0.00,WeatherCatV1.02B3,2013-09-30 03:43:00,
2013-09-29 22:48:00,70.2,68.4,29.99,SSE,158,0.0,0.0,94,0.00,,,0.00,WeatherCatV1.02B3,2013-09-30 03:48:00,
2013-09-29 22:53:00,70.2,68.4,29.99,SSE,158,0.0,2.0,94,0.00,,,0.00,WeatherCatV1.02B3,2013-09-30 03:53:00,
2013-09-29 22:58:00,70.2,68.4,29.99,SSE,158,0.0,0.0,94,0.00,,,0.00,WeatherCatV1.02B3,2013-09-30 03:58:00,
2013-09-29 23:01:00,70.1,68.3,29.99,SSE,158,0.0,0.0,94,0.00,,,0.00,WeatherCatV1.02B3,2013-09-30 04:01:00,
2013-09-29 23:06:00,70.1,68.3,29.99,SSE,158,0.0,0.0,94,0.00,,,0.00,WeatherCatV1.02B3,2013-09-30 04:06:00,
2013-09-29 23:11:00,70.0,68.2,29.99,SSE,158,0.0,0.0,94,0.00,,,0.00,WeatherCatV1.02B3,2013-09-30 04:11:00,
2013-09-29 23:16:00,70.0,68.2,29.99,SSE,158,0.0,0.0,94,0.00,,,0.00,WeatherCatV1.02B3,2013-09-30 04:16:00,
2013-09-29 23:21:00,69.9,68.1,29.99,SSE,158,0.0,0.0,94,0.00,,,0.00,WeatherCatV1.02B3,2013-09-30 04:21:00,
2013-09-29 23:26:00,69.9,68.1,29.99,SSE,158,0.0,0.0,94,0.00,,,0.00,WeatherCatV1.02B3,2013-09-30 04:26:00,
2013-09-29 23:31:00,69.9,68.1,29.99,SSE,158,0.0,0.0,94,0.00,,,0.00,WeatherCatV1.02B3,2013-09-30 04:31:00,
2013-09-29 23:36:00,69.9,68.1,29.99,SSE,158,0.0,0.0,94,0.00,,,0.00,WeatherCatV1.02B3,2013-09-30 04:36:00,
2013-09-29 23:41:00,69.9,68.1,29.98,SSE,158,0.0,0.0,94,0.00,,,0.00,WeatherCatV1.02B3,2013-09-30 04:41:00,
2013-09-29 23:46:00,69.9,68.1,29.98,SSE,158,0.0,0.0,94,0.00,,,0.00,WeatherCatV1.02B3,2013-09-30 04:46:00,
2013-09-29 23:51:00,69.8,68.0,29.98,SSE,158,0.0,0.0,94,0.00,,,0.00,WeatherCatV1.02B3,2013-09-30 04:51:00,
2013-09-29 23:56:00,69.8,68.0,29.98,SSE,158,0.0,0.0,94,0.00,,,0.00,WeatherCatV1.02B3,2013-09-30 04:56:00,